Location: Newark
(48.0000°N, 67.0000°E)
Time: 15:04:21
(UTC+00:00)

Vanguard 2 - Pass Details

Date: 20 February 2020
Orbit: 552 x 2938 km, 32.9° (Epoch: 08 April)

Event Time Altitude Azimuth Distance (km) Brightness Sun altitude
Exits shadow 22:20:46 32° 156° (SSE) 3,270 10.5 -40.7°
Maximum altitude 22:21:13 32° 153° (SSE) 3,297 10.5 -40.7°
Drops below altitude 10° 22:34:16 10° 99° (E) 5,542 12.3 -38.8°
Sets 22:39:38 0° 91° (E) 6,725 13.0 -38.1°
